Change the Weather History Date:

Thursday, June 13, 2013

  Actual Average Record
Temperature  
Mean Temperature 58 °F -  
Max Temperature 69 °F 74 °F 93 °F (1949)
Min Temperature 46 °F 50 °F 37 °F (1976)
Degree Days  
Heating Degree Days 8    
Growing Degree Days 8 (Base 50)    
Moisture  
Dew Point 49 °F    
Average Humidity 74    
Maximum Humidity 93    
Minimum Humidity 37    
Precipitation  
Precipitation 0.00 in - - ()
Sea Level Pressure  
Sea Level Pressure 29.77 in    
Wind  
Wind Speed 2 mph (SSW)    
Max Wind Speed 8 mph    
Max Gust Speed -    
Visibility 9 miles    
Events Fog , Rain    
Averages and records for this station are not official NWS values.
T = Trace of Precipitation, MM = Missing Value Source: NWS Daily Summary

Daily Weather History Graph

Daily Weather History Graph

Search for Another Location

Airport or City:

Trip Planner

Search our weather history database for the weather conditions in past years. The results will help you decide how hot, cold, wet, or windy it might be!

Date:

Astronomy

Jun. 13, 2013 Rise Set
Actual Time 5:02 AM EDT 8:36 PM EDT
Civil Twilight 4:24 AM EDT 9:13 PM EDT
Nautical Twilight 3:35 AM EDT 10:02 PM EDT
Astronomical Twilight 2:31 AM EDT 11:07 PM EDT
Moon 9:45 AM EDT (6/13) 11:29 PM EDT (6/13)
Length of Visible Light 16h 48m
Length of Day
15h 34m
Waxing Crescent, 21% of the Moon is Illuminated
Jun 13
Waxing Crescent
Jun 16
First Quarter
Jun 23
Full
Jun 30
Last Quarter
Jul 8
New

Hourly Weather History & Observations

Time (EDT) Temp. Dew Point Humidity Pressure Visibility Wind Dir Wind Speed Gust Speed Precip Events Conditions
12:15 AM 53.4 °F 50.4 °F 89% 29.83 in 10.0 mi SSW 3.5 mph - N/A   Overcast
12:35 AM 52.7 °F 50.0 °F 91% 29.83 in 10.0 mi Calm Calm - N/A   Overcast
12:55 AM 52.0 °F 49.3 °F 90% 29.83 in 7.0 mi Calm Calm - N/A   Mostly Cloudy
1:15 AM 52.7 °F 50.4 °F 92% 29.82 in 10.0 mi South 4.6 mph - N/A   Mostly Cloudy
1:35 AM 53.1 °F 50.0 °F 89% 29.82 in 10.0 mi Calm Calm - N/A   Overcast
1:55 AM 52.3 °F 49.6 °F 91% 29.82 in 10.0 mi SW 5.8 mph - N/A   Overcast
2:15 AM 51.8 °F 49.3 °F 91% 29.81 in 10.0 mi Calm Calm - N/A   Mostly Cloudy
2:35 AM 50.5 °F 47.8 °F 90% 29.82 in 7.0 mi SW 3.5 mph - N/A   Clear
2:55 AM 50.0 °F 47.7 °F 92% 29.82 in 1.8 mi Calm Calm - N/A   Mist
3:15 AM 50.4 °F 48.2 °F 92% 29.82 in 10.0 mi Calm Calm - N/A   Clear
3:35 AM 48.2 °F 45.9 °F 92% 29.81 in 4.0 mi SW 5.8 mph - N/A   Clear
3:55 AM 49.3 °F 47.1 °F 92% 29.81 in 2.5 mi Calm Calm - N/A   Scattered Clouds
4:15 AM 48.4 °F 46.4 °F 93% 29.81 in 2.5 mi Calm Calm - N/A   Scattered Clouds
4:35 AM 46.9 °F 44.8 °F 92% 29.82 in 4.0 mi Calm Calm - N/A   Clear
4:55 AM 47.3 °F 45.3 °F 93% 29.83 in 7.0 mi SW 3.5 mph - N/A   Clear
5:15 AM 46.6 °F 44.4 °F 92% 29.83 in 0.2 mi Calm Calm - N/A Fog Fog
5:35 AM 46.8 °F 44.8 °F 93% 29.82 in 0.2 mi SSW 3.5 mph - N/A Fog Fog
5:55 AM 47.1 °F 45.0 °F 92% 29.82 in 0.2 mi SW 4.6 mph - N/A Fog Fog
6:15 AM 48.4 °F 46.4 °F 93% 29.82 in 0.2 mi Calm Calm - N/A Fog Fog
6:35 AM 48.7 °F 46.8 °F 93% 29.82 in 0.2 mi Calm Calm - N/A Fog Fog
6:55 AM 50.7 °F 48.6 °F 92% 29.82 in 3.0 mi Calm Calm - N/A   Scattered Clouds
7:15 AM 51.6 °F 49.6 °F 93% 29.81 in 10.0 mi Calm Calm - N/A   Clear
7:35 AM 52.7 °F 50.4 °F 92% 29.82 in 10.0 mi Calm Calm - N/A   Clear
7:55 AM 52.9 °F 50.7 °F 92% 29.82 in 7.0 mi Calm Calm - N/A   Clear
8:15 AM 54.9 °F 52.3 °F 91% 29.81 in 10.0 mi Calm Calm - N/A   Clear
8:35 AM 57.2 °F 52.9 °F 85% 29.81 in 10.0 mi Calm Calm - N/A   Clear
8:55 AM 59.2 °F 53.8 °F 82% 29.80 in 10.0 mi SW 3.5 mph - N/A   Clear
9:15 AM 60.1 °F 52.9 °F 77% 29.80 in 10.0 mi Calm Calm - N/A   Clear
9:35 AM 62.8 °F 52.9 °F 70% 29.79 in 10.0 mi Calm Calm - N/A   Clear
9:55 AM 64.0 °F 52.5 °F 66% 29.79 in 10.0 mi Calm Calm - N/A   Clear
10:15 AM 64.6 °F 51.8 °F 63% 29.78 in 10.0 mi Calm Calm - N/A   Clear
10:35 AM 65.8 °F 52.2 °F 61% 29.78 in 10.0 mi North 3.5 mph - N/A   Clear
10:55 AM 66.7 °F 51.3 °F 57% 29.78 in 10.0 mi Calm Calm - N/A   Clear
11:15 AM 67.5 °F 48.0 °F 50% 29.78 in 10.0 mi Calm Calm - N/A   Clear
11:35 AM 69.1 °F 45.0 °F 42% 29.77 in 10.0 mi East 8.1 mph - N/A   Clear
11:55 AM 68.7 °F 44.8 °F 42% 29.76 in 10.0 mi East 5.8 mph - N/A   Clear
12:15 PM 69.4 °F 48.0 °F 46% 29.76 in 10.0 mi NE 3.5 mph - N/A   Scattered Clouds
12:35 PM 69.3 °F 41.9 °F 37% 29.75 in 10.0 mi Calm Calm - N/A   Mostly Cloudy
12:55 PM 68.4 °F 45.9 °F 44% 29.75 in 10.0 mi Calm Calm - N/A   Mostly Cloudy
1:15 PM 68.4 °F 49.5 °F 51% 29.75 in 10.0 mi North 4.6 mph - N/A   Mostly Cloudy
1:35 PM 69.1 °F 47.3 °F 46% 29.74 in 10.0 mi Calm Calm - N/A   Mostly Cloudy
1:55 PM 69.1 °F 47.3 °F 46% 29.73 in 10.0 mi Calm Calm - N/A   Scattered Clouds
2:15 PM 69.1 °F 46.0 °F 44% 29.72 in 10.0 mi ENE 5.8 mph - N/A   Scattered Clouds
2:35 PM 69.1 °F 43.3 °F 39% 29.72 in 10.0 mi ESE 4.6 mph - N/A   Clear
2:55 PM 68.9 °F 44.8 °F 42% 29.71 in 10.0 mi ESE 4.6 mph - N/A   Clear
3:15 PM 69.1 °F 46.9 °F 45% 29.71 in 10.0 mi Calm Calm - N/A   Clear
3:35 PM 68.9 °F 46.2 °F 44% 29.70 in 10.0 mi NNW 3.5 mph - N/A   Clear
3:55 PM 69.3 °F 43.9 °F 40% 29.70 in 10.0 mi Calm Calm - N/A   Clear
4:15 PM 68.5 °F 43.2 °F 40% 29.70 in 10.0 mi Calm Calm - N/A   Mostly Cloudy
4:35 PM 67.5 °F 42.4 °F 40% 29.70 in 10.0 mi Calm Calm - N/A   Overcast
4:55 PM 65.1 °F 52.0 °F 62% 29.70 in 10.0 mi Calm Calm - N/A Rain Rain
5:15 PM 64.6 °F 50.9 °F 61% 29.71 in 10.0 mi South 8.1 mph - N/A   Overcast
5:35 PM 63.5 °F 51.6 °F 65% 29.72 in 10.0 mi SSW 3.5 mph - N/A   Overcast
5:55 PM 63.5 °F 49.8 °F 61% 29.72 in 10.0 mi WNW 3.5 mph - N/A   Light Drizzle
6:15 PM 62.8 °F 52.2 °F 68% 29.72 in 10.0 mi WSW 4.6 mph - N/A   Overcast
6:35 PM 62.6 °F 52.3 °F 69% 29.72 in 10.0 mi SSW 3.5 mph - N/A   Overcast
6:55 PM 62.8 °F 51.6 °F 67% 29.73 in 10.0 mi SE 4.6 mph - N/A   Overcast
7:15 PM 61.7 °F 53.6 °F 75% 29.74 in 10.0 mi Calm Calm - N/A Rain Light Rain
7:35 PM 60.1 °F 53.4 °F 79% 29.74 in 10.0 mi Calm Calm - N/A Rain Light Rain
7:55 PM 59.4 °F 54.3 °F 83% 29.75 in 10.0 mi WNW 3.5 mph - N/A Rain Rain
8:15 PM 59.0 °F 54.5 °F 85% 29.75 in 10.0 mi WSW 3.5 mph - N/A Rain Light Rain
8:35 PM 57.9 °F 53.8 °F 86% 29.75 in 10.0 mi SSW 3.5 mph - N/A Rain Light Rain
8:55 PM 57.2 °F 53.6 °F 88% 29.76 in 10.0 mi SW 4.6 mph - N/A   Overcast
9:15 PM 56.8 °F 51.8 °F 83% 29.76 in 10.0 mi Calm Calm - N/A   Overcast
9:35 PM 56.3 °F 52.2 °F 86% 29.76 in 10.0 mi Calm Calm - N/A   Overcast
9:55 PM 55.6 °F 52.0 °F 88% 29.75 in 10.0 mi Calm Calm - N/A   Overcast
10:15 PM 55.0 °F 52.0 °F 89% 29.75 in 10.0 mi Calm Calm - N/A   Mostly Cloudy
10:35 PM 55.6 °F 51.6 °F 87% 29.75 in 10.0 mi Calm Calm - N/A   Scattered Clouds
10:55 PM 54.0 °F 51.1 °F 90% 29.75 in 10.0 mi Calm Calm - N/A   Clear
11:15 PM 53.8 °F 51.3 °F 91% 29.75 in 10.0 mi Calm Calm - N/A   Clear
11:35 PM 54.1 °F 51.4 °F 91% 29.75 in 10.0 mi Calm Calm - N/A   Clear
11:55 PM 53.8 °F 50.9 °F 90% 29.75 in 10.0 mi Calm Calm - N/A   Clear